Weather observations for the past three days for
Barter Island, Barter Island LRRS Airport
Imperial (Metric)
Date Time (akdt) Wind (mph) Vis. (mi.) Weather Sky Cond. Temperature (ºF) Relative Humidity Wind Chill (°F) Heat Index (°F) Pressure Precipitation (in)
Air Dwpt 6 hour altimeter (in) sea level (mb) 1 hr 3 hr 6 hr
Max. Min.
05 20:56 W 24 1.75 Light Snow Fog/Mist and Breezy FEW007 BKN023 OVC045 24.1 21.9 91% 9 29.68 1006.9
05 19:56 W 22 1.00 Light Snow Fog/Mist and Breezy BKN007 OVC020 26.1 24.1 92% 13 29.67 1006.6
05 18:56 W 21 1.00 Light Snow Fog/Mist and Breezy OVC017 27 24.1 89% 14 29.67 1006.4
05 17:56 W 20 1.25 Light Snow Fog/Mist BKN019 OVC026 27 25 92% 14 29.66 1006.2
05 16:56 W 17 0.50 Snow Freezing Fog OVC013 28 25 88% 17 29.65 1006.0
05 15:56 W 7 0.75 Light Snow Fog/Mist OVC015 28.9 26.1 32 27 89% 23 29.64 1005.5 0.01 0.02
05 14:56 W 6 1.00 Light Snow BKN017 BKN023 OVC028 30.9 26.1 82% 26 29.64 1005.6 0.01
05 13:55 NW 3 2.00 Light Snow Fog/Mist SCT013 BKN018 OVC028 28.9 26.1 89% 29.65 1005.7
05 12:51 NW 5 0.75 Light Snow Fog/Mist OVC004 28 26.1 92% 24 29.65 1006.0
05 11:56 Calm 7.00 Overcast OVC004 28 25 88% 29.67 1006.5
05 10:56 N 7 10.00 Overcast OVC004 27 25 92% 20 29.66 1006.4
05 09:56 E 13 10.00 Overcast OVC004 27 24.1 27 24.1 89% 17 29.68 1006.8
05 08:56 NE 17 10.00 Overcast OVC004 26.1 24.1 92% 14 29.69 1007.3
05 07:56 E 22 8.00 Overcast and Breezy OVC004 25 23 92% 11 29.7 1007.6
05 06:56 E 28 0.50 Light Snow Freezing Fog and Windy OVC004 25 23 92% 10 29.71 1007.7
05 05:56 E 26 0.25 Light Snow Freezing Fog and Windy OVC004 25 24.1 96% 10 29.73 1008.6
05 04:56 E 23 2.00 Unknown Precip Fog/Mist and Breezy OVC002 25 23 92% 11 29.77 1009.9
05 03:56 E 23 6.00 Light Snow Fog/Mist and Breezy OVC004 25 23 26.1 25 92% 11 29.8 1010.8
05 02:56 E 25 2.00 Light Snow Fog/Mist and Breezy OVC004 25 24.1 96% 10 29.82 1011.5
05 01:56 E 22 5.00 Light Snow Fog/Mist and Breezy OVC008 26.1 24.1 92% 13 29.85 1012.5
05 00:56 E 22 1.25 Light Snow Fog/Mist and Breezy OVC010 25 24.1 96% 11 29.88 1013.8
04 23:56 E 22 1.75 Light Snow Fog/Mist and Breezy OVC010 26.1 24.1 92% 13 29.91 1014.6
04 22:56 E 21 5.00 Light Snow Fog/Mist and Breezy OVC004 26.1 24.1 92% 13 29.94 1015.8
04 21:56 E 22 8.00 Overcast and Breezy OVC004 26.1 24.1 30.9 26.1 92% 13 29.97 1016.8
04 20:56 E 20 8.00 Overcast OVC004 26.1 24.1 92% 13 30 1017.6
04 19:56 E 22 9.00 Overcast and Breezy OVC008 27 24.1 89% 14 30.02 1018.3
04 18:56 E 18 10.00 Overcast OVC008 28.9 25 85% 17 30.04 1018.9
04 17:56 E 22 10.00 Overcast and Breezy OVC008 28.9 26.1 89% 16 30.05 1019.4
04 16:56 E 18 10.00 Overcast OVC010 30.9 26.1 82% 20 30.07 1020.3
04 15:56 E 16 10.00 Overcast OVC008 30.9 26.1 32 28.9 82% 21 30.09 1020.9
04 14:56 E 16 10.00 Overcast OVC008 30.9 26.1 82% 21 30.11 1021.4
04 13:56 E 16 10.00 Overcast OVC008 32 26.1 79% 22 30.12 1021.8
04 12:56 E 14 10.00 Overcast OVC006 30.9 26.1 82% 21 30.13 1022.1
04 11:56 E 13 10.00 Overcast OVC006 30.9 26.1 82% 22 30.14 1022.4
04 10:56 E 9 10.00 Overcast OVC006 30 26.1 85% 22 30.14 1022.6
04 09:56 E 12 10.00 Overcast OVC004 28.9 25 28.9 27 85% 20 30.14 1022.5
04 08:56 NE 10 8.00 Overcast OVC004 27 25 92% 18 30.14 1022.6
04 07:56 NE 7 4.00 Light Snow Fog/Mist BKN006 OVC009 27 25 92% 20 30.14 1022.6
04 06:56 NE 6 1.25 Light Snow Fog/Mist OVC004 27 25 92% 21 30.14 0.0
04 05:56 NE 8 4.00 Light Snow Fog/Mist OVC006 27 25 92% 19 30.14 1022.4
04 04:56 N 7 5.00 Light Snow Fog/Mist OVC006 27 25 92% 20 30.13 0.0
04 03:56 N 8 7.00 Overcast SCT005 BKN060 OVC080 27 25 32 27 92% 19 30.13 0.0
04 02:56 NW 8 9.00 Overcast BKN005 BKN080 OVC120 28 27 96% 21 30.12 0.0
04 01:56 NW 10 7.00 Light Snow OVC003 28.9 28 96% 20 30.12 0.0
04 00:56 NW 9 1.25 Fog/Mist OVC003 30 28.9 96% 22 30.11 0.0
03 23:56 NW 13 0.75 Fog/Mist OVC003 30.9 30 96% 22 30.09 0.0
03 21:56 W 16 9.00 Overcast OVC005 32 30 92% 22 30.06 1019.8
03 20:56 W 18 10.00 Overcast OVC005 33.1 30.9 92% 23 30.04 1019.1
03 19:56 W 16 10.00 Overcast OVC010 34 30.9 89% 24 30.03 1018.6
03 18:56 W 18 10.00 Mostly Cloudy FEW070 BKN085 0 0 0% 30.01 0.0
03 17:56 W 18 10.00 Overcast SCT007 SCT070 OVC090 34 30.9 89% 24 29.99 1017.5
03 16:56 W 18 10.00 Overcast OVC095 0 0 0% 29.98 0.0
03 15:56 W 18 10.00 Fair CLR 0 0 0% 29.96 0.0
03 14:56 W 14 10.00 Overcast OVC050 0 0 0% 29.94 0.0
03 13:56 W 8 10.00 A Few Clouds FEW050 0 0 0% 29.92 0.0
03 12:56 W 5 10.00 A Few Clouds FEW060 0 0 0% 29.9 0.0
03 11:56 S 5 10.00 A Few Clouds FEW110 0 0 0% 29.88 0.0
03 10:56 S 5 10.00 A Few Clouds FEW038 34 30.9 89% 30 29.87 1013.3
03 09:56 S 5 10.00 Partly Cloudy FEW027 SCT070 37 30.9 37 21 79% 34 29.86 1012.8
03 08:56 S 7 10.00 Mostly Cloudy BKN023 32 28 85% 26 29.85 1012.7
03 07:56 SW 6 9.00 Overcast OVC021 28 26.1 92% 22 29.84 1012.4
03 06:56 S 6 10.00 Overcast OVC025 23 21.9 96% 17 29.83 1011.9
03 05:56 SW 7 8.00 Mostly Cloudy FEW020 BKN027 23 21 92% 16 29.83 1011.8
03 04:56 SW 8 8.00 Overcast OVC020 27 25 92% 19 29.81 1011.4
03 03:56 SW 6 8.00 Overcast OVC022 24.1 23 30 23 96% 18 29.8 1011.0
03 02:56 SW 7 7.00 Partly Cloudy SCT050 24.1 23 96% 17 29.79 1010.7
03 01:56 W 9 9.00 Overcast OVC024 28 27 96% 20 29.77 1009.9
03 00:56 SW 10 7.00 Light Snow SCT020 BKN029 OVC043 27 25 92% 18 29.75 1009.3
02 23:56 W 7 5.00 Light Snow Fog/Mist FEW020 BKN025 OVC055 28 26.1 92% 22 29.72 1008.4
02 22:56 S 3 8.00 Unknown Precip FEW028 SCT044 OVC070 28.9 27 92% 29.7 1007.6
02 21:56 E 3 6.00 Fog/Mist OVC035 30 28 33.1 30 92% 29.68 1007.0
Date Time (akdt) Wind (mph) Vis. (mi.) Weather Sky Cond. Air Dwpt Max. Min. Relative Humidity Wind Chill (°F) Heat Index (°F) altimeter (in) sea level (mb) 1 hr 3 hr 6 hr
6 hour
Temperature (ºF) Pressure Precipitation (in)